Regional Weather Roundup
Issued by NWS Upton, NY

Current Version | Previous Version | Graphics & Text | Print | Product List | Glossary Off
Versions: 1 2 3 4 5 6 7 8 9 10 11 12 13 14 15 16 17 18 19 20 21 22 23 24 25 26 27

000
ASUS41 KOKX 191805
RWROKX

Regional Weather Roundup
National Weather Service New York NY
100 PM EST MON FEB 19 2018

Note: "FAIR" indicates few or no clouds below 12,000 feet with no
significant weather and/or obstructions to visibility.

NYZ071-072-176-178-NJZ106-104-191900-
New York City Metro Area

CITY           SKY/WX    TMP DP  RH WIND       PRES   REMARKS
Central Park   CLOUDY    47  37  68 S6        30.46F
Bronx Bot Gard   N/A     46  36  66 S9        30.43F
Bronx Lehman C   N/A     46  37  71 S8          N/A
LaGuardia Arpt CLOUDY    48  37  65 S13G22    30.44F
Queens College   N/A     46  37  71 S10         N/A
Kennedy Intl   CLOUDY    46  39  76 S14       30.46F
Breezy Point     N/A     41 N/A N/A SE8         N/A
Brooklyn Coll    N/A     45  37  76 SE8         N/A
Staten Island    N/A     46  37  71 E6          N/A
Newark/Liberty CLOUDY    48  37  65 SE6       30.43F
Teterboro      CLOUDY    47  37  68 S9        30.42F
$$

NYZ177-179-078>081-191900-
Long Island New York

CITY           SKY/WX    TMP DP  RH WIND       PRES   REMARKS
Jones Beach      N/A     43 N/A N/A S7          N/A
Wantagh          N/A     46  39  76 S7          N/A
Hempstead      NOT AVBL
Matinecock Pt    N/A     46 N/A N/A SW10G18     N/A
Farmingdale    CLOUDY    47  40  76 S12       30.45F
MacArthur/ISP  PTSUNNY   49  40  71 S13       30.44F
Shirley        PTSUNNY   50  41  71 S16G22    30.45F
Mt Sinai Harb    N/A    N/A N/A N/A S9G16       N/A
Westhampton    FAIR      51  41  68 S8G20     30.47F
East Hampton   CLOUDY    47  40  76 S7        30.46F
Southold         N/A     48  39  71 S9          N/A
Montauk          N/A     50  40  68 S9G16     30.48F
$$

NYZ052-065-067-191900-
Hudson Valley

CITY           SKY/WX    TMP DP  RH WIND       PRES   REMARKS
White Plains   PTSUNNY   44  36  73 S8        30.41F
Larchmont Harb   N/A     41 N/A N/A S13         N/A
Croton On Huds   N/A     43 N/A N/A SE2G9       N/A
Somers           N/A     43  34  70 S9          N/A
Brewster         N/A     43  32  65 S7          N/A
Newburgh       PTSUNNY   43  34  70 W6        30.42F
Montgomery     CLOUDY    42  32  67 S8        30.39F
Otisville        N/A     39  32  75 S6          N/A  WCI  35
Warwick          N/A     41  32  70 SW6         N/A
Suffern          N/A     43  34  70 S5          N/A
Poughkeepsie   CLOUDY    43  31  62 VRB5      30.41F
Albany         CLOUDY    43  29  57 S15G26    30.33F
$$

NJZ001-105-106-008-010-013-015-019>022-104-191900-
New Jersey

CITY           SKY/WX    TMP DP  RH WIND       PRES   REMARKS
Newark/Liberty CLOUDY    48  37  65 SE6       30.43F
Teterboro      CLOUDY    47  37  68 S9        30.42F
Caldwell       CLOUDY    45  34  65 VRB3      30.42F
Somerville     CLOUDY    45  36  70 CALM      30.41F
Linden         CLOUDY    49  35  59 CALM      30.43F
Perth Amboy      N/A     48 N/A N/A SW10        N/A
Sussex         CLOUDY    42  33  70 S8        30.40F
Andover          N/A     41  33  73 S5        30.40F
Trenton        CLOUDY    49  37  63 SW6       30.42F
Millville      CLOUDY    48  43  82 VRB5      30.44F
Atlantic City  CLOUDY    52  45  77 S8        30.44F
Wrightstown    CLOUDY    51  39  63 SW8       30.40
Toms River     CLOUDY    51  43  74 SW10      30.44F
Belmar         CLOUDY    49  41  74 MISG        N/A
$$

PAZ047>061-062-071-191900-
Eastern Pennsylvania

CITY           SKY/WX    TMP DP  RH WIND       PRES   REMARKS
Philadelphia   LGT RAIN  46  39  76 S10       30.44F
Allentown      CLOUDY    41  33  73 S9        30.41F
Scranton       CLOUDY    39  32  76 S8G17     30.32F WCI  33
$$

CTZ002-004>006-009-010-012-RIZ004-006-007-MAZ004-011-015-191900-
Southern New England

 In CT

CITY           SKY/WX    TMP DP  RH WIND       PRES   REMARKS
Bradley Intl   PTSUNNY   45  33  63 S14G25    30.42F
Hartford       CLOUDY    48  36  63 S14G24    30.42F
Danbury        CLOUDY   N/A N/A N/A S10G17    30.42F
Wtrbury/Oxford CLOUDY    43  34  70 S15       30.41F
Norwalk Harbor   N/A     39 N/A N/A N2          N/A
Bridgeport     CLOUDY    44  35  70 CALM      30.44F
Meriden        CLOUDY    46  35  65 S9        30.43F
New Haven      CLOUDY    46  35  65 S6        30.44F
Chester        MOCLDY    50  37  62 S7G16     30.43F
Groton         PTSUNNY   47  39  74 S9        30.46F
Willimantic    CLOUDY    47  35  63 S10       30.44F

 In RI

CITY           SKY/WX    TMP DP  RH WIND       PRES   REMARKS
Providence     PTSUNNY   48  39  71 S22       30.46F
Block Island   FAIR      48  40  73 S10       30.48F
Westerly       FAIR      49  40  71 S12       30.47F

In MA

CITY           SKY/WX    TMP DP  RH WIND       PRES   REMARKS
Boston         PTSUNNY   46  35  65 S17       30.42F
Worcester      PTSUNNY   43  30  60 S17       30.39F
Westfield      PTSUNNY   46  32  58 S13G25    30.38F
Provincetown   FAIR      45  35  68 S17G25    30.48F
Nantucket      FAIR      46  39  76 S14       30.50F
$$

ANZ330-335-338-340-345-350-353-355-191900-
Coastal Marine Observations


STATION/POSITION TIME  SKY/WX   TEMP    WIND        PRES    VSBY  WAVE
                                AIR SEA DIR/SP/G                  HT/PER
                 (UTC)          (F)     (DEG/KT/KT) (MB)    (MI)  (FT/S)
NY Harb Entrance 1650            41 40  130/  6/  8 1031.9          2/ 8
20 S Fire Island 1650            45 43  120/  4/  6 1032.8          2/ 8
15 E Barnegat Li 1730               41                N/A           2/ 8
Hudson Canyon    1650            49 47  150/  6/  8 1032.3          3/10
Kings Point      1742            44 36  220/ 14/ 16 1031.8
Execution Rocks  NOT AVBL
Western LI Sound NOT AVBL
Central LI Sound 1745            42     210/  6/  8   N/A           1
Robbins Reef     1742            43     170/ 11/ 12 1031.7
$$


>>>>>>>>>>>>>>>>>>>>>>>>>>>> KEY <<<<<<<<<<<<<<<<<<<<<<<<<<<
>                                                          <
>     SKY/WX - Sky Condition/Present Weather               <
>     TMP    - Temperature in Fahrenheit                   <
>     DP     - Dew Point in Fahrenheit                     <
>     RH     - Relative Humidity in Percent                <
>     WIND   - Direction (from) and Speed in MPH           <
>     PRES   - Mean Sea Level Pressure (inches of Hg)      <
>     WCI    - Wind Chill Index                            <
>     VSB    - Visibility in Miles                         <
>     HX     - Heat Index                                  <
>     TC     - Temperature in Celsius                      <
>     VRB    - Varibale Wind Direction                     <
>                                                          <
>>>>>>>>>>>>>>>>>>>>>>>>>>>> KEY <<<<<<<<<<<<<<<<<<<<<<<<<<<




USA.gov is the U.S. government's official web portal to all federal, state and local government web resources and services.